Regional Weather Roundup
Issued by NWS

Home | Current Version | Previous Version | Text Only | Print | Product List | Glossary On
Versions: 1 2 3 4 5 6 7 8 9 10 11 12 13 14 15 16 17 18 19 20 21 22 23 24 25 26 27 28 29 30 31 32 33 34 35 36 37 38 39 40 41 42 43 44 45 46 47 48 49 50
000
ASUS43 KLOT 191704
RWRIL

ILLINOIS REGIONAL WEATHER ROUNDUP
NATIONAL WEATHER SERVICE CHICAGO/ROMEOVILLE IL
1200 PM CDT TUE SEP 19 2017

NOTE: "FAIR" INDICATES FEW OR NO CLOUDS BELOW 12,000 FEET WITH NO
SIGNIFICANT WEATHER AND/OR OBSTRUCTIONS TO VISIBILITY.

* THESE STATIONS ARE NOT UNDER NWS QUALITY CONTROL. THEY ALSO MAY NOT
  REPORT WEATHER SUCH AS PRECIPITATION OR FOG.

ILZ001-002-007-009-015-016-024-191800-
NORTHWEST ILLINOIS

CITY           SKY/WX    TMP DP  RH WIND       PRES   REMARKS
MOLINE         SUNNY     75  64  68 E8        29.95F
STERLING*        N/A     68  65  90 E5        29.98S
SAVANNA*       CLOUDY    68  63  83 CALM      29.98S
$$

ILZ003-004-008-010-011-017-018-191800-
NORTH CENTRAL ILLINOIS

CITY           SKY/WX    TMP DP  RH WIND       PRES   REMARKS
ROCKFORD       MOSUNNY   74  63  68 E6        29.97F
FREEPORT*      SUNNY     73  63  71 E6        29.98F
ROCHELLE*      PTSUNNY   74  65  74 NE7       29.97F
DE KALB*       MOSUNNY   74  65  72 E5        29.97F
PERU*          CLOUDY    69  63  82 SE3       29.98S
$$

ILZ005-006-012>014-019>023-191800-
NORTHEAST ILLINOIS

CITY           SKY/WX    TMP DP  RH WIND       PRES   REMARKS
CHICAGO-OHARE  CLOUDY    75  65  70 VRB5      29.95F
CHICAGO-MIDWAY PTSUNNY   74  67  78 E5        29.95F
AURORA         PTSUNNY   76  68  76 NE7       29.96F
LANSING*       CLOUDY    73  67  81 N3        29.96S
JOLIET*        PTSUNNY   76  67  73 NE6       29.96F
WAUKEGAN       CLOUDY    71  67  87 NE7       29.96F
DUPAGE AIRPORT PTSUNNY   74  67  78 CALM      29.95F
KANKAKEE*      CLOUDY    76  64  67 CALM      29.96F
WHEELING       CLOUDY    73  69  87 E5        29.97F
MORRIS*        PTSUNNY   74  65  74 CALM      29.96S
ROMEOVILLE*    SUNNY     76  66  72 E5        29.96F
NORTHERLY ISL    N/A     71  66  84 NE5         N/A
$$

LMZ740>746-191800-
SOUTHERN LAKE MICHIGAN

STATION/POSITION SKY/WX   TEMP    WIND        PRES    VSBY  WAVE
                          AIR SEA DIR/SP/G                  HT/PER
                          (F)     (DEG/KT/KT) (MB)    (MI)  (FT/S)
SOUTHERN BUOY              66 68   70/ 10/ 12 1015.3          1/ 4
WILMETTE HARBOR            69 69   30/  4/  4   N/A           2/ 5
HARRISON CRIB              69      50/  5/  5   N/A
CALUMET HARBOR             69      10/  4/  6 1014.0F
BURNS HARBOR               68      20/  7/  8 1015.2S
MICHIGAN CITY              68      10/  6/  7   N/A
MICHIGAN CITY 6N           69 69   10/  6/  8   N/A           1/ 5
ST. JOSEPH                 67 69   90/ 12/ 14 1015.0R         1
$$

ILZ025>027-034>036-040-047-049-050-058-095>099-191800-
WEST-CENTRAL ILLINOIS

CITY           SKY/WX    TMP DP  RH WIND       PRES   REMARKS
QUINCY         PTSUNNY   73  67  81 SE7       29.95F
GALESBURG*     PTSUNNY   75  68  78 E5        29.97F
MACOMB*        CLOUDY    70  69  98 S5        29.99F
PITTSFIELD*    MOSUNNY   73  69  87 SE3       29.97F
$$

ILZ028>032-037-038-041>044-048-051>054-059>061-191800-
CENTRAL ILLINOIS

CITY           SKY/WX    TMP DP  RH WIND       PRES   REMARKS
PONTIAC        CLOUDY    70  70  99 CALM      29.97F
BLOOMINGTON    PTSUNNY   75  65  70 CALM      29.97F
DECATUR        CLOUDY    74  69  85 NE3       29.97F
PEORIA         CLOUDY    75  67  76 VRB3      29.96F
LACON*         CLOUDY    66  66  98 CALM      29.97S FOG
LINCOLN*       CLOUDY    71  69  94 CALM      29.97S
SPRINGFIELD    MOSUNNY   80  69  69 VRB5      29.96F HX  83
TAYLORVILLE    NOT AVBL
$$

ILZ033-039-045-046-055>057-062-063-191800-
EAST-CENTRAL ILLINOIS

CITY           SKY/WX    TMP DP  RH WIND       PRES   REMARKS
CHAMPAIGN      CLOUDY    71  66  84 CALM      29.98S
RANTOUL*       CLOUDY    72  68  87 CALM      29.97F
MATTOON        PTSUNNY   77  67  71 W5        29.95F
PARIS*         CLOUDY    76  68  75 NW3       29.97F
$$

ILZ079-100>102-191800-
SOUTHWEST ILLINOIS

CITY           SKY/WX    TMP DP  RH WIND       PRES   REMARKS
ALTON          SUNNY     79  70  73 SE6       29.96F HX  81
BELLEVILLE     MOSUNNY   82  66  56 VRB3      29.97F HX  84
CAHOKIA*       MOSUNNY   84  67  56 VRB5      29.95F HX  86
SPARTA*        MOSUNNY   79  69  71 CALM      29.98F HX  82
$$

ILZ064>066-069>071-074>076-080>082-084>086-088>090-092>094-191800-
SOUTH-CENTRAL ILLINOIS

CITY           SKY/WX    TMP DP  RH WIND       PRES   REMARKS
CARBONDALE     SUNNY     81  71  71 CALM      29.97F HX  85
CAIRO*         SUNNY     80  74  80 CALM      29.97F HX  84
EFFINGHAM*     PTSUNNY   80  67  63 SE6       29.97F HX  83
MARION         PTSUNNY   81  70  69 NE5       29.99F HX  84
CENTRALIA*     PTSUNNY   82  71  69 CALM      29.96F HX  86
SALEM*         MOSUNNY   82  68  60 SW6       29.96F HX  85
METROPOLIS*    SUNNY     82  71  67 CALM      29.98F HX  87
$$

ILZ067-068-072-073-078-083-087-091-191800-
SOUTHEAST ILLINOIS

CITY           SKY/WX    TMP DP  RH WIND       PRES   REMARKS
LAWRENCEVILLE  MOSUNNY   77  70  79 SW7       29.98S
FLORA*         MOSUNNY   82  70  67 S5        29.97F HX  85
FAIRFIELD*     PTSUNNY   80  69  69 CALM      29.96F HX  82
HARRISBURG*    MOSUNNY   81  69  67 CALM      29.98F HX  84
ROBINSON*      PTSUNNY   76  69  77 SW5       29.98S
CARMI*         PTSUNNY   78  71  81 CALM      29.97F
$$

ABBREVIATIONS USED IN REMARKS
   TC - TEMPERATURE IN CELSIUS
  WCI - WIND CHILL INDEX
   HX - HEAT INDEX
  VSB - VISIBILITY
$$





USA.gov is the U.S. government's official web portal to all federal, state and local government web resources and services.